Location: Newark
(51.0000°N, 11.4100°E)
Time: 09:29:49
(UTC+00:00)

N. Korean satellite - Pass Details

Date: 21 October 2019
Orbit: 456 x 506 km, 97.2° (Epoch: 13 November)

Event Time Altitude Azimuth Distance (km) Brightness Sun altitude
Rises 04:20:15 0° 26° (NNE) 2,558 10.6 -14.3°
Reaches altitude 10° 04:22:45 10° 44° (NE) 1,682 9.9 -13.9°
Maximum altitude 04:25:27 20° 92° (E) 1,206 9.7 -13.5°
Drops below altitude 10° 04:28:09 10° 140° (SE) 1,691 9.9 -13.1°
Sets 04:30:40 0° 159° (SSE) 2,576 10.6 -12.7°
